This is the latest recevied weather packets stored in our database for station/object KN6KS. If no packets are shown the sender has not sent any weather packets the latest 10 day(s).
| Time | Temp. | Humidity | Pressure | Rain* | Wind** | Luminosity | Snow |
|---|---|---|---|---|---|---|---|
| 1777596149 | 26.11° C | 34% | 1009.2 hPa | 0 mm | - | 228 W/m² | - |
| 1777595846 | 26.11° C | 34% | 1008.9 hPa | 0 mm | - | 241 W/m² | - |
| 1777595541 | 26.11° C | 32% | 1009.2 hPa | 0 mm | - | 269 W/m² | - |
| 1777595238 | 26.67° C | 31% | 1009 hPa | 0 mm | - | 284 W/m² | - |
| 1777594934 | 26.67° C | 29% | 1008.9 hPa | 0 mm | - | 310 W/m² | - |
| 1777594630 | 26.11° C | 33% | 1009 hPa | 0 mm | - | 332 W/m² | - |
| 1777594327 | 26.67° C | 32% | 1009 hPa | 0 mm | - | 340 W/m² | - |
| 1777594023 | 28.33° C | 18% | 1008.5 hPa | 0 mm | - | 347 W/m² | - |
| 1777593718 | 28.33° C | 20% | 1009 hPa | 0 mm | - | 376 W/m² | - |
| 1777593415 | 28.33° C | 15% | 1008.8 hPa | 0 mm | - | 383 W/m² | - |
| 1777593114 | 28.33° C | 16% | 1009 hPa | 0 mm | - | 405 W/m² | - |
| 1777592813 | 28.33° C | 15% | 1008.8 hPa | 0 mm | - | 404 W/m² | - |
| 1777592510 | 28.33° C | 17% | 1009.1 hPa | 0 mm | - | 439 W/m² | - |
| 1777592205 | 28.89° C | 16% | 1008.7 hPa | 0 mm | - | 449 W/m² | - |
| 1777591902 | 28.33° C | 16% | 1008.8 hPa | 0 mm | - | 426 W/m² | - |
| 1777591598 | 27.78° C | 16% | 1009 hPa | 0 mm | - | 466 W/m² | - |
| 1777591294 | 28.33° C | 15% | 1008.7 hPa | 0 mm | - | 480 W/m² | - |
| 1777590990 | 27.78° C | 15% | 1008.8 hPa | 0 mm | - | 499 W/m² | - |
| 1777590685 | 28.33° C | 15% | 1009 hPa | 0 mm | - | 509 W/m² | - |
| 1777590382 | 27.78° C | 16% | 1009.1 hPa | 0 mm | - | 519 W/m² | - |
| 1777590080 | 28.33° C | 15% | 1009.1 hPa | 0 mm | - | 534 W/m² | - |
| 1777589775 | 28.89° C | 15% | 1009.1 hPa | 0 mm | - | 540 W/m² | - |
| 1777589475 | 27.78° C | 16% | 1009.3 hPa | 0 mm | - | 548 W/m² | - |
| 1777589170 | 27.78° C | 15% | 1009.3 hPa | 0 mm | - | 565 W/m² | - |
| 1777588866 | 28.89° C | 16% | 1009.6 hPa | 0 mm | - | 570 W/m² | - |
* Rain latest hour (hover to see other rain measurements)
** Current wind speed in m/s (hover to see current wind gust speed)